TimePST,TemperatureF,Dew PointF,Humidity,Sea Level PressureIn,VisibilityMPH,Wind Direction,Wind SpeedMPH,Gust SpeedMPH,PrecipitationIn,Events,Conditions,WindDirDegrees,DateUTC
12:56 AM,10.9,8.1,88,30.12,6.0,WNW,3.5,-,N/A,,Clear,290,2013-01-07 08:56:00
1:56 AM,7.0,3.0,84,30.12,6.0,Calm,Calm,-,N/A,,Clear,0,2013-01-07 09:56:00
2:56 AM,8.1,5.0,87,30.14,5.0,Calm,Calm,-,N/A,,Clear,0,2013-01-07 10:56:00
3:56 AM,7.0,3.0,84,30.14,7.0,Calm,Calm,-,N/A,,Clear,0,2013-01-07 11:56:00
4:46 AM,6.8,5.0,92,30.22,5.0,SSE,8.1,-,N/A,,Partly Cloudy,150,2013-01-07 12:46:00
4:56 AM,8.1,6.1,92,30.12,5.0,SSE,8.1,-,N/A,,Partly Cloudy,150,2013-01-07 12:56:00
5:56 AM,9.0,7.0,92,30.15,6.0,SSE,6.9,-,N/A,,Clear,160,2013-01-07 13:56:00
6:14 AM,10.4,6.8,85,30.26,7.0,South,4.6,-,N/A,,Scattered Clouds,190,2013-01-07 14:14:00
6:56 AM,12.0,10.0,92,30.16,7.0,SE,5.8,-,N/A,,Overcast,130,2013-01-07 14:56:00
7:56 AM,12.0,6.1,77,30.18,10.0,East,5.8,-,N/A,,Overcast,80,2013-01-07 15:56:00
8:56 AM,18.0,15.1,88,30.20,7.0,Calm,Calm,-,N/A,,Overcast,0,2013-01-07 16:56:00
9:56 AM,19.9,17.1,89,30.19,7.0,SE,3.5,-,N/A,,Overcast,140,2013-01-07 17:56:00
10:56 AM,27.0,19.9,75,30.17,9.0,South,3.5,-,N/A,,Overcast,180,2013-01-07 18:56:00
11:56 AM,30.0,19.9,66,30.17,9.0,Calm,Calm,-,N/A,,Overcast,0,2013-01-07 19:56:00
12:56 PM,33.1,21.9,64,30.13,10.0,Variable,3.5,-,N/A,,Overcast,0,2013-01-07 20:56:00
1:56 PM,35.1,23.0,61,30.12,10.0,SSE,6.9,-,N/A,,Overcast,160,2013-01-07 21:56:00
2:56 PM,35.1,23.0,61,30.14,10.0,Calm,Calm,-,N/A,,Overcast,0,2013-01-07 22:56:00
3:56 PM,36.0,23.0,59,30.15,10.0,Calm,Calm,-,N/A,,Overcast,0,2013-01-07 23:56:00
4:56 PM,33.1,23.0,66,30.16,10.0,ENE,4.6,-,N/A,,Overcast,60,2013-01-08 00:56:00
5:56 PM,32.0,23.0,69,30.16,10.0,NE,4.6,-,N/A,,Mostly Cloudy,40,2013-01-08 01:56:00
6:56 PM,28.9,21.0,72,30.17,9.0,North,4.6,-,N/A,,Mostly Cloudy,360,2013-01-08 02:56:00
7:56 PM,24.1,19.0,81,30.17,8.0,NE,4.6,-,N/A,,Partly Cloudy,40,2013-01-08 03:56:00
8:56 PM,24.1,19.9,84,30.16,8.0,East,4.6,-,N/A,,Partly Cloudy,90,2013-01-08 04:56:00
9:56 PM,21.0,18.0,88,30.15,7.0,South,4.6,-,N/A,,Partly Cloudy,170,2013-01-08 05:56:00
10:56 PM,21.9,18.0,85,30.17,8.0,Calm,Calm,-,N/A,,Clear,0,2013-01-08 06:56:00
11:56 PM,18.0,16.0,92,30.17,5.0,ENE,4.6,-,N/A,,Clear,60,2013-01-08 07:56:00